Time,TemperatureF,DewpointF,PressureIn,WindDirection,WindDirectionDegrees,WindSpeedMPH,WindSpeedGustMPH,Humidity,HourlyPrecipIn,Conditions,Clouds,dailyrainin,SoftwareType,DateUTC
2013-02-21 00:00:00,56.2,49.4,29.97,North,-999,0.0,0.0,78,0.00,,,-99.99,WeatherLink 5.7,2013-02-21 05:00:00,
2013-02-21 00:15:00,56.0,49.6,29.97,North,-999,0.0,0.0,79,0.00,,,-99.99,WeatherLink 5.7,2013-02-21 05:15:00,
2013-02-21 00:30:00,55.9,49.5,29.96,North,-999,0.0,0.0,79,0.00,,,-99.99,WeatherLink 5.7,2013-02-21 05:30:00,
2013-02-21 00:45:00,55.9,49.8,29.96,North,-999,0.0,0.0,80,0.00,,,-99.99,WeatherLink 5.7,2013-02-21 05:45:00,
2013-02-21 01:00:00,56.1,50.3,29.96,North,-999,0.0,0.0,81,0.00,,,-99.99,WeatherLink 5.7,2013-02-21 06:00:00,
2013-02-21 01:15:00,56.3,50.5,29.96,North,-999,0.0,0.0,81,0.00,,,-99.99,WeatherLink 5.7,2013-02-21 06:15:00,
2013-02-21 01:30:00,56.7,51.3,29.95,North,-999,0.0,0.0,82,0.00,,,-99.99,WeatherLink 5.7,2013-02-21 06:30:00,
2013-02-21 01:45:00,57.1,51.7,29.94,North,-999,0.0,0.0,82,0.00,,,-99.99,WeatherLink 5.7,2013-02-21 06:45:00,
2013-02-21 02:00:00,57.3,51.9,29.94,North,-999,0.0,0.0,82,0.00,,,-99.99,WeatherLink 5.7,2013-02-21 07:00:00,
2013-02-21 02:15:00,57.5,52.0,29.94,North,-999,0.0,0.0,82,0.00,,,-99.99,WeatherLink 5.7,2013-02-21 07:15:00,
2013-02-21 02:30:00,57.5,52.0,29.94,North,-999,0.0,0.0,82,0.00,,,-99.99,WeatherLink 5.7,2013-02-21 07:30:00,
2013-02-21 02:45:00,57.5,52.4,29.93,North,-999,0.0,0.0,83,0.00,,,-99.99,WeatherLink 5.7,2013-02-21 07:45:00,
2013-02-21 03:00:00,57.5,52.4,29.93,North,-999,0.0,0.0,83,0.00,,,-99.99,WeatherLink 5.7,2013-02-21 08:00:00,
2013-02-21 03:15:00,57.5,52.4,29.93,North,-999,0.0,0.0,83,0.00,,,-99.99,WeatherLink 5.7,2013-02-21 08:15:00,
2013-02-21 03:30:00,57.5,52.7,29.93,North,-999,0.0,0.0,84,0.00,,,-99.99,WeatherLink 5.7,2013-02-21 08:30:00,
2013-02-21 03:45:00,57.5,52.7,29.93,North,-999,0.0,0.0,84,0.00,,,-99.99,WeatherLink 5.7,2013-02-21 08:45:00,
2013-02-21 04:00:00,57.6,52.8,29.92,North,-999,0.0,0.0,84,0.00,,,-99.99,WeatherLink 5.7,2013-02-21 09:00:00,
2013-02-21 04:15:00,57.8,53.0,29.93,North,-999,0.0,0.0,84,0.00,,,-99.99,WeatherLink 5.7,2013-02-21 09:15:00,
2013-02-21 04:30:00,57.8,53.3,29.93,North,-999,0.0,0.0,85,0.00,,,-99.99,WeatherLink 5.7,2013-02-21 09:30:00,
2013-02-21 04:45:00,58.0,53.5,29.93,North,-999,0.0,0.0,85,0.00,,,-99.99,WeatherLink 5.7,2013-02-21 09:45:00,
2013-02-21 05:00:00,58.0,53.5,29.94,North,-999,0.0,0.0,85,0.00,,,-99.99,WeatherLink 5.7,2013-02-21 10:00:00,
2013-02-21 05:15:00,58.0,53.5,29.94,North,-999,0.0,0.0,85,0.00,,,-99.99,WeatherLink 5.7,2013-02-21 10:15:00,
2013-02-21 05:30:00,58.1,53.6,29.94,North,-999,0.0,0.0,85,0.00,,,-99.99,WeatherLink 5.7,2013-02-21 10:30:00,
2013-02-21 05:45:00,58.1,53.6,29.94,North,-999,0.0,0.0,85,0.00,,,-99.99,WeatherLink 5.7,2013-02-21 10:45:00,
2013-02-21 06:00:00,58.3,54.1,29.94,North,-999,0.0,0.0,86,0.00,,,-99.99,WeatherLink 5.7,2013-02-21 11:00:00,
2013-02-21 06:15:00,58.4,54.2,29.95,North,-999,0.0,0.0,86,0.00,,,-99.99,WeatherLink 5.7,2013-02-21 11:15:00,
2013-02-21 06:30:00,58.4,54.2,29.95,North,-999,0.0,0.0,86,0.00,,,-99.99,WeatherLink 5.7,2013-02-21 11:30:00,
2013-02-21 06:45:00,58.5,54.3,29.95,North,-999,0.0,0.0,86,0.00,,,-99.99,WeatherLink 5.7,2013-02-21 11:45:00,
2013-02-21 07:00:00,58.6,54.7,29.96,North,-999,0.0,0.0,87,0.00,,,-99.99,WeatherLink 5.7,2013-02-21 12:00:00,
2013-02-21 07:15:00,58.7,54.8,29.97,North,-999,0.0,0.0,87,0.00,,,-99.99,WeatherLink 5.7,2013-02-21 12:15:00,
2013-02-21 07:30:00,59.0,55.1,29.97,North,-999,0.0,0.0,87,0.00,,,-99.99,WeatherLink 5.7,2013-02-21 12:30:00,
2013-02-21 07:45:00,59.4,55.5,29.98,North,-999,0.0,0.0,87,0.00,,,-99.99,WeatherLink 5.7,2013-02-21 12:45:00,
2013-02-21 08:00:00,59.7,55.8,29.99,North,-999,0.0,0.0,87,0.00,,,-99.99,WeatherLink 5.7,2013-02-21 13:00:00,
2013-02-21 08:15:00,60.2,56.3,29.99,North,0,0.0,1.0,87,0.02,,,-99.99,WeatherLink 5.7,2013-02-21 13:15:00,
2013-02-21 08:30:00,60.9,57.0,29.99,North,-999,0.0,0.0,87,0.03,,,-99.99,WeatherLink 5.7,2013-02-21 13:30:00,
2013-02-21 08:45:00,62.1,58.2,29.99,North,-999,0.0,0.0,87,0.03,,,-99.99,WeatherLink 5.7,2013-02-21 13:45:00,
2013-02-21 09:00:00,63.6,59.0,30.00,North,0,0.0,7.0,85,0.03,,,-99.99,WeatherLink 5.7,2013-02-21 14:00:00,
2013-02-21 09:15:00,65.5,60.5,30.00,North,0,0.0,3.0,84,0.01,,,-99.99,WeatherLink 5.7,2013-02-21 14:15:00,
2013-02-21 09:30:00,67.3,61.6,30.00,North,0,0.0,7.0,82,0.00,,,-99.99,WeatherLink 5.7,2013-02-21 14:30:00,
2013-02-21 09:45:00,69.0,62.6,30.00,North,0,0.0,4.0,80,0.00,,,-99.99,WeatherLink 5.7,2013-02-21 14:45:00,
2013-02-21 10:00:00,70.7,63.1,30.00,North,0,0.0,6.0,77,0.00,,,-99.99,WeatherLink 5.7,2013-02-21 15:00:00,
2013-02-21 10:15:00,72.1,63.7,30.00,North,0,1.0,7.0,75,0.00,,,-99.99,WeatherLink 5.7,2013-02-21 15:15:00,
2013-02-21 10:30:00,72.9,63.7,30.00,North,0,1.0,10.0,73,0.00,,,-99.99,WeatherLink 5.7,2013-02-21 15:30:00,
2013-02-21 10:45:00,73.4,63.4,30.00,North,0,1.0,13.0,71,0.01,,,-99.99,WeatherLink 5.7,2013-02-21 15:45:00,
2013-02-21 11:00:00,73.8,63.4,30.00,North,0,2.0,9.0,70,0.01,,,-99.99,WeatherLink 5.7,2013-02-21 16:00:00,
2013-02-21 11:15:00,74.2,63.8,30.00,North,0,1.0,11.0,70,0.01,,,-99.99,WeatherLink 5.7,2013-02-21 16:15:00,
2013-02-21 11:30:00,74.7,64.3,29.99,North,0,2.0,10.0,70,0.01,,,-99.99,WeatherLink 5.7,2013-02-21 16:30:00,
2013-02-21 11:45:00,75.2,64.3,29.98,North,0,1.0,10.0,69,0.00,,,-99.99,WeatherLink 5.7,2013-02-21 16:45:00,
2013-02-21 12:00:00,75.8,64.5,29.97,North,0,1.0,9.0,68,0.00,,,-99.99,WeatherLink 5.7,2013-02-21 17:00:00,
2013-02-21 12:15:00,76.3,64.5,29.97,North,0,1.0,10.0,67,0.00,,,-99.99,WeatherLink 5.7,2013-02-21 17:15:00,
2013-02-21 12:30:00,76.6,64.4,29.97,North,0,1.0,11.0,66,0.00,,,-99.99,WeatherLink 5.7,2013-02-21 17:30:00,
2013-02-21 12:45:00,76.7,64.5,29.97,North,0,0.0,10.0,66,0.00,,,-99.99,WeatherLink 5.7,2013-02-21 17:45:00,
2013-02-21 13:00:00,77.0,63.9,29.96,North,0,0.0,9.0,64,0.00,,,-99.99,WeatherLink 5.7,2013-02-21 18:00:00,
2013-02-21 13:15:00,77.3,64.2,29.95,North,0,0.0,7.0,64,0.00,,,-99.99,WeatherLink 5.7,2013-02-21 18:15:00,
2013-02-21 13:30:00,77.7,64.1,29.94,North,0,0.0,9.0,63,0.00,,,-99.99,WeatherLink 5.7,2013-02-21 18:30:00,
2013-02-21 13:45:00,77.7,64.1,29.93,North,0,0.0,4.0,63,0.00,,,-99.99,WeatherLink 5.7,2013-02-21 18:45:00,
2013-02-21 14:00:00,77.7,64.1,29.93,North,0,0.0,6.0,63,0.00,,,-99.99,WeatherLink 5.7,2013-02-21 19:00:00,
2013-02-21 14:15:00,77.7,64.5,29.92,North,-999,0.0,0.0,64,0.00,,,-99.99,WeatherLink 5.7,2013-02-21 19:15:00,
2013-02-21 14:30:00,77.9,63.8,29.92,North,0,0.0,1.0,62,0.00,,,-99.99,WeatherLink 5.7,2013-02-21 19:30:00,
2013-02-21 14:45:00,78.1,64.0,29.92,North,-999,0.0,0.0,62,0.00,,,-99.99,WeatherLink 5.7,2013-02-21 19:45:00,
2013-02-21 15:00:00,78.1,64.0,29.92,North,-999,0.0,0.0,62,0.00,,,-99.99,WeatherLink 5.7,2013-02-21 20:00:00,
2013-02-21 15:15:00,77.8,63.7,29.91,North,-999,0.0,0.0,62,0.00,,,-99.99,WeatherLink 5.7,2013-02-21 20:15:00,
2013-02-21 15:30:00,77.7,63.6,29.91,North,0,0.0,1.0,62,0.00,,,-99.99,WeatherLink 5.7,2013-02-21 20:30:00,
2013-02-21 15:45:00,77.9,63.4,29.91,North,-999,0.0,0.0,61,0.00,,,-99.99,WeatherLink 5.7,2013-02-21 20:45:00,
2013-02-21 16:00:00,78.6,64.0,29.91,North,0,0.0,6.0,61,0.00,,,-99.99,WeatherLink 5.7,2013-02-21 21:00:00,
2013-02-21 16:15:00,79.2,63.6,29.90,North,0,1.0,11.0,59,0.00,,,-99.99,WeatherLink 5.7,2013-02-21 21:15:00,
2013-02-21 16:30:00,78.8,63.3,29.90,North,0,1.0,7.0,59,0.00,,,-99.99,WeatherLink 5.7,2013-02-21 21:30:00,
2013-02-21 16:45:00,78.0,62.5,29.90,North,0,1.0,9.0,59,0.00,,,-99.99,WeatherLink 5.7,2013-02-21 21:45:00,
2013-02-21 17:00:00,77.4,62.4,29.90,North,0,0.0,6.0,60,0.00,,,-99.99,WeatherLink 5.7,2013-02-21 22:00:00,
2013-02-21 17:15:00,77.1,62.6,29.90,North,0,0.0,4.0,61,0.00,,,-99.99,WeatherLink 5.7,2013-02-21 22:15:00,
2013-02-21 17:30:00,76.7,62.7,29.91,North,0,0.0,9.0,62,0.00,,,-99.99,WeatherLink 5.7,2013-02-21 22:30:00,
2013-02-21 17:45:00,76.0,62.5,29.91,North,-999,0.0,0.0,63,0.00,,,-99.99,WeatherLink 5.7,2013-02-21 22:45:00,
2013-02-21 18:00:00,75.2,61.7,29.91,North,0,0.0,6.0,63,0.00,,,-99.99,WeatherLink 5.7,2013-02-21 23:00:00,
2013-02-21 18:15:00,74.2,61.7,29.92,North,0,0.0,3.0,65,0.00,,,-99.99,WeatherLink 5.7,2013-02-21 23:15:00,
2013-02-21 18:30:00,73.4,61.3,29.92,North,-999,0.0,0.0,66,0.00,,,-99.99,WeatherLink 5.7,2013-02-21 23:30:00,
2013-02-21 18:45:00,72.6,61.0,29.92,North,-999,0.0,0.0,67,0.00,,,-99.99,WeatherLink 5.7,2013-02-21 23:45:00,
2013-02-21 19:00:00,71.8,60.7,29.92,North,-999,0.0,0.0,68,0.00,,,-99.99,WeatherLink 5.7,2013-02-22 00:00:00,
2013-02-21 19:15:00,71.0,60.7,29.92,North,-999,0.0,0.0,70,0.00,,,-99.99,WeatherLink 5.7,2013-02-22 00:15:00,
2013-02-21 19:30:00,70.3,60.1,29.92,North,-999,0.0,0.0,70,0.00,,,-99.99,WeatherLink 5.7,2013-02-22 00:30:00,
2013-02-21 19:45:00,69.7,59.5,29.92,North,-999,0.0,0.0,70,0.00,,,-99.99,WeatherLink 5.7,2013-02-22 00:45:00,
2013-02-21 20:00:00,69.0,59.2,29.93,North,-999,0.0,0.0,71,0.00,,,-99.99,WeatherLink 5.7,2013-02-22 01:00:00,
2013-02-21 20:15:00,68.3,59.3,29.93,North,-999,0.0,0.0,73,0.00,,,-99.99,WeatherLink 5.7,2013-02-22 01:15:00,
2013-02-21 20:30:00,67.8,59.2,29.92,North,-999,0.0,0.0,74,0.00,,,-99.99,WeatherLink 5.7,2013-02-22 01:30:00,
2013-02-21 20:45:00,67.4,58.8,29.93,North,-999,0.0,0.0,74,0.00,,,-99.99,WeatherLink 5.7,2013-02-22 01:45:00,
2013-02-21 21:00:00,66.8,58.6,29.93,North,-999,0.0,0.0,75,0.00,,,-99.99,WeatherLink 5.7,2013-02-22 02:00:00,
2013-02-21 21:15:00,66.2,58.4,29.94,North,-999,0.0,0.0,76,0.00,,,-99.99,WeatherLink 5.7,2013-02-22 02:15:00,
2013-02-21 21:30:00,65.8,58.4,29.94,North,-999,0.0,0.0,77,0.00,,,-99.99,WeatherLink 5.7,2013-02-22 02:30:00,
2013-02-21 21:45:00,65.4,57.6,29.94,North,-999,0.0,0.0,76,0.00,,,-99.99,WeatherLink 5.7,2013-02-22 02:45:00,
2013-02-21 22:00:00,65.0,58.3,29.94,North,-999,0.0,0.0,79,0.00,,,-99.99,WeatherLink 5.7,2013-02-22 03:00:00,
2013-02-21 22:15:00,64.7,58.4,29.94,North,-999,0.0,0.0,80,0.00,,,-99.99,WeatherLink 5.7,2013-02-22 03:15:00,
2013-02-21 22:30:00,64.3,57.6,29.94,North,-999,0.0,0.0,79,0.00,,,-99.99,WeatherLink 5.7,2013-02-22 03:30:00,
2013-02-21 22:45:00,64.1,57.5,29.93,North,-999,0.0,0.0,79,0.00,,,-99.99,WeatherLink 5.7,2013-02-22 03:45:00,
2013-02-21 23:00:00,63.8,57.2,29.94,North,-999,0.0,0.0,79,0.00,,,-99.99,WeatherLink 5.7,2013-02-22 04:00:00,
2013-02-21 23:15:00,63.4,57.1,29.94,North,-999,0.0,0.0,80,0.00,,,-99.99,WeatherLink 5.7,2013-02-22 04:15:00,
2013-02-21 23:30:00,63.4,57.5,29.94,North,-999,0.0,0.0,81,0.00,,,-99.99,WeatherLink 5.7,2013-02-22 04:30:00,
2013-02-21 23:45:00,63.4,57.8,29.94,North,-999,0.0,0.0,82,0.00,,,-99.99,WeatherLink 5.7,2013-02-22 04:45:00,